Flag for U.S.A. Weather past 2 weeks in Trenton, New Jersey, U.S.A.

Now
48 °F

Clear.


Feels Like: 45 °F
Forecast: 46 / 67 °F
Wind: 6 mph from Northwest

Location: Mercer County Airport

Current Time: Apr 28, 2015 at 6:50:27 AM

Latest Report: Apr 28, 2015 at 5:53 AM


Visibility: 10 mi

Pressure: 29.77 "Hg

Humidity: 68%

Dew point: 38 °F

Location of TrentonLocation

Historic Weather in Trenton — Graph

°F

Trenton temperature yesterday

Maximum temperature yesterday: 58 °F (at 12:53 PM)
Minimum temperature yesterday: 44 °F (at 3:53 AM)
Average temperature yesterday: 52 °F

Past Weeks' High & Low Weather Summary

 TemperatureHumidityPressure
High80 °F (Apr 18, 5:53 PM)93% (Apr 17, 6:53 AM)30.45 "Hg (Apr 17, 6:53 AM)
Low35 °F (Apr 25, 3:53 AM)12% (Apr 15, 4:53 PM)29.52 "Hg (Apr 21, 12:53 AM)
Average55 °F49%29.91 "Hg
* Reported Apr 13 4:53 AM — Apr 28 4:53 AM, Trenton, Weather by CustomWeather, © 2015

Note: Actual official high and low records may vary slightly from our data, if they occured in-between our weather recording intervals... More about our weather records

Advertising

Trenton weather history for previous 24 hours

 ConditionsComfort  
Time TempWeatherWind HumidityBarometerVisibility
4:53 AM
Tue, Apr 28
48 °FClear.6 mph66%29.75 "Hg10 mi
3:53 AM48 °FPassing clouds.8 mph66%29.75 "Hg10 mi
2:53 AM49 °FClear.8 mph61%29.74 "Hg10 mi
1:53 AM50 °FPartly cloudy.10 mph57%29.75 "Hg10 mi
12:53 AM51 °FOvercast.8 mph52%29.75 "Hg10 mi
11:53 PM
Mon, Apr 27
51 °FOvercast.9 mph50%29.74 "Hg10 mi
10:53 PM51 °FOvercast.8 mph48%29.74 "Hg10 mi
9:53 PM51 °FPassing clouds.9 mph46%29.75 "Hg10 mi
8:53 PM53 °FPassing clouds.17 mph43%29.72 "Hg10 mi
7:53 PM55 °FOvercast.17 mph40%29.71 "Hg10 mi
6:53 PM56 °FOvercast.9 mph37%29.69 "Hg10 mi
5:53 PM57 °FOvercast.16 mph39%29.67 "Hg10 mi
4:53 PM58 °FBroken clouds.15 mph35%29.66 "Hg10 mi
3:53 PM57 °FMostly cloudy.13 mph36%29.66 "Hg10 mi
2:53 PM56 °FOvercast.9 mph39%29.69 "Hg10 mi
1:53 PM56 °FMostly cloudy.14 mph37%29.68 "Hg10 mi
12:53 PM58 °FOvercast.10 mph36%29.68 "Hg10 mi
11:53 AM56 °FOvercast.13 mph42%29.69 "Hg10 mi
10:53 AM54 °FOvercast.8 mph45%29.70 "Hg10 mi
9:53 AM52 °FOvercast.10 mph50%29.70 "Hg10 mi
8:53 AM50 °FOvercast.9 mph50%29.69 "Hg10 mi
7:53 AM48 °FOvercast.9 mph52%29.69 "Hg10 mi
6:53 AM47 °FOvercast.7 mph52%29.68 "Hg10 mi
Weather by CustomWeather, © 2015

See weather overviewHow to use our weather pages